SCP
0 0 0 0 0 0 0 0 0 0 0 0 0 0 0 0 0 0 0 0 0 0 0 0 0 0 0 0 0 0 0 0 0 0 0 0 0 0 0 0 0 0 0
0 0 0 0 0 0 0 0 0 0 0 0 0 0 0 0 0 0 0 0 0 0 0 0 0 0 0 0 0 0 0 0 0 0 0 0 0 0 0 0 0 0 1
0 0 0 0 0 0 0 0 0 0 0 0 0 0 0 0 0 0 0 0 0 0 0 0 0 0 0 0 0 0 0 0 0 0 0 0 0 0 0 0 0 1 1
0 0 0 0 0 0 0 0 0 0 0 0 0 0 0 0 0 0 0 0 0 0 0 0 0 0 0 0 0 0 0 0 0 0 0 0 0 0 0 0 0 1 1
0 0 0 0 0 0 0 0 0 0 0 0 0 0 0 0 0 0 0 0 0 0 0 0 0 0 0 0 0 0 0 0 0 0 0 0 0 0 0 0 0 1 1
0 0 0 0 0 0 0 0 0 0 0 0 0 0 0 0 0 0 0 0 0 0 0 0 0 0 0 0 0 0 0 0 0 0 0 0 0 0 0 0 0 0 0
0 0 0 0 0 0 0 0 0 0 0 0 0 0 0 0 0 0 0 0 0 0 0 0 0 0 0 0 0 0 0 0 0 0 0 0 0 0 0 0 0 0 0
0 0 0 0 0 0 0 0 0 0 0 0 0 0 0 0 0 0 0 0 0 0 0 0 0 0 0 0 0 0 0 0 0 0 0 0 0 0 0 0 0 0 0
0 0 0 0 0 0 0 0 0 0 0 0 0 0 0 0 0 0 0 0 0 0 0 0 0 0 0 0 0 0 0 0 0 0 0 0 0 0 0 0 0 0 0
0 0 0 0 0 0 0 0 0 0 0 0 0 0 0 0 0 0 0 0 0 0 0 0 0 0 0 0 0 0 0 0 0 0 0 0 0 0 0 0 0 0 0
0 0 0 0 0 0 0 0 0 0 0 0 0 0 0 0 0 0 0 0 0 0 0 0 0 0 0 0 0 0 0 0 0 0 0 0 0 0 0 0 0 0 0
0 0 0 0 0 0 0 0 0 0 0 0 0 0 0 0 0 0 0 0 0 0 0 0 0 0 0 0 0 0 0 0 0 0 0 0 0 0 0 0 0 0 0
0 0 0 0 0 0 0 0 0 0 0 0 0 0 0 0 0 0 0 0 0 0 0 0 0 0 0 0 0 0 0 0 0 0 0 0 0 0 0 0 0 0 0
0 0 0 0 0 0 0 0 0 0 0 0 0 0 0 0 0 0 0 0 0 0 0 0 0 0 0 0 0 0 0 0 0 0 0 0 0 0 0 0 0 0 0
0 0 0 0 0 0 0 0 0 0 0 0 0 0 0 0 0 0 0 0 0 0 0 0 0 0 0 0 0 0 0 0 0 0 0 0 0 0 0 0 0 0 0
0 0 0 0 0 0 0 0 0 0 0 0 0 0 0 0 0 0 0 0 0 0 0 0 0 0 0 0 0 0 0 0 0 0 0 0 0 0 0 0 0 0 0
0 0 0 0 0 0 0 0 0 0 0 0 0 0 0 0 0 0 0 0 0 0 0 0 0 0 0 0 0 0 0 0 0 0 0 0 0 0 0 0 0 0 0
0 0 0 0 0 0 0 0 0 0 0 0 0 0 0 0 0 0 0 0 0 0 0 0 0 0 0 0 0 0 0 0 0 0 0 0 0 0 0 0 0 0 0
0 0 0 0 0 0 0 0 0 0 0 0 0 0 0 0 0 0 0 0 0 0 0 0 0 0 0 0 0 0 0 0 0 0 0 0 0 0 0 0 0 0 0
0 0 0 0 0 0 0 0 0 0 0 0 0 0 0 0 0 0 0 0 0 0 0 0 0 0 0 0 0 0 0 0 0 0 0 0 0 0 0 0 0 0 0
0 0 0 0 0 0 0 0 0 0 0 0 0 0 0 0 0 0 0 0 0 0 0 0 0 0 0 0 0 0 0 0 0 0 0 0 0 0 0 0 0 0 0
0 0 0 0 0 0 0 0 0 0 0 0 0 0 0 0 0 0 0 0 0 0 0 0 0 0 0 0 0 0 0 0 0 0 0 0 0 0 0 0 0 0 0
0 0 0 0 0 0 0 0 0 0 0 0 0 0 0 0 0 0 0 0 0 0 0 0 0 0 0 0 0 0 0 0 0 0 0 0 0 0 0 0 0 0 0
0 0 0 0 0 0 0 0 0 0 0 0 0 0 0 0 0 0 0 0 0 0 0 0 0 0 0 0 0 0 0 0 0 0 0 0 0 0 0 0 0 0 0
0 0 0 0 0 0 0 0 0 0 0 0 0 0 0 0 0 0 0 0 0 0 0 0 0 0 0 0 0 0 0 0 0 0 0 0 0 0 0 0 0 0 0
0 0 0 0 0 0 0 0 0 0 0 0 0 0 0 0 0 0 0 0 0 0 0 0 0 0 0 0 0 0 0 0 0 0 0 0 0 0 0 0 0 0 0
Wind_Speed
14 15 17 19 20 21 21 21 20 20 17 13 14 15 14 12 11 12 17 17 17 17 16 13 15 14 13 14 14 13 14 12 11 10 12 14 14 14 12 11 11 12 12
16 16 16 17 19 19 19 20 19 19 16 13 14 14 12 12 13 12 14 16 18 17 14 14 12 14 15 15 15 14 12 12 11 9 10 11 13 14 11 12 12 12 11
15 16 16 18 19 19 18 18 18 18 16 16 13 13 15 14 12 13 13 15 17 16 14 14 12 12 12 11 13 13 14 13 13 12 9 9 10 8 9 9 10 11 11
15 17 17 17 18 17 16 17 17 17 16 16 14 16 13 14 15 14 14 16 16 16 15 14 12 11 11 12 11 13 11 12 12 13 12 12 9 8 10 8 8 8 9
15 16 15 15 16 16 15 15 16 16 16 16 15 15 14 14 14 13 16 16 16 16 16 16 14 13 11 12 13 13 12 10 10 12 14 14 11 11 10 10 10 8 7
15 15 13 13 14 15 14 14 16 16 16 17 17 17 17 17 17 18 16 14 14 14 16 17 16 15 13 13 13 14 14 12 12 12 13 14 12 8 9 10 13 13 10
14 14 14 14 15 15 15 14 17 17 17 17 18 18 18 18 18 17 16 16 13 13 16 18 16 16 16 15 14 14 14 14 14 13 11 13 14 11 10 12 11 13 12
14 13 14 14 15 15 16 16 17 17 17 17 18 17 17 14 14 16 16 15 13 14 18 18 18 19 18 16 15 13 14 13 13 14 13 12 14 13 10 11 10 10 10
14 13 14 14 15 16 16 16 17 17 17 17 17 16 16 16 16 17 16 14 15 15 18 19 18 19 18 18 16 14 16 14 13 13 14 13 13 13 10 9 8 8 8
13 13 13 14 14 15 15 16 17 17 16 16 15 14 15 16 16 16 17 17 18 19 20 19 19 19 17 17 17 14 14 14 13 12 13 16 14 12 8 9 10 9 11
13 14 13 13 14 15 15 16 17 16 16 15 15 15 15 15 15 15 17 17 18 19 19 20 20 19 18 18 16 18 14 15 14 13 14 17 15 8 5 7 9 10 10
13 14 13 14 14 15 15 15 16 16 16 15 15 14 14 15 15 16 17 18 18 19 18 19 20 19 19 19 18 19 15 14 15 14 13 14 11 10 6 5 9 10 10
14 14 13 14 14 15 15 15 15 15 15 15 14 14 15 16 16 17 17 18 18 18 19 18 18 19 18 19 19 17 14 13 13 14 12 11 13 13 9 5 7 8 7
14 14 14 13 14 15 15 15 15 15 15 14 14 14 15 16 16 17 17 18 18 18 18 18 18 19 17 17 17 12 11 12 13 13 12 11 12 13 11 6 8 10 8
14 14 14 14 15 15 15 15 15 15 15 14 14 14 15 16 16 17 17 18 18 17 18 18 18 19 16 16 21 10 8 10 12 12 12 11 16 20 14 4 5 7 6
14 14 15 15 16 16 15 15 15 15 15 14 14 15 15 16 16 17 17 17 17 17 17 17 17 18 14 25 31 15 9 9 9 10 11 12 14 18 23 25 22 15 5
14 14 14 15 15 15 15 15 15 15 15 14 15 15 15 16 16 17 17 17 17 17 16 16 17 17 17 27 30 18 10 10 11 11 10 10 12 14 12 18 23 24 27
13 13 12 13 15 15 14 14 15 14 15 15 15 15 15 16 17 17 16 16 15 15 15 15 17 16 18 28 27 17 8 10 12 11 12 13 13 15 14 13 15 16 17
11 12 12 13 14 14 14 15 15 15 15 15 16 16 15 16 17 16 16 15 14 14 14 15 15 16 17 27 26 11 9 11 12 13 14 16 16 22 22 16 16 16 15
10 11 12 13 13 14 14 15 15 16 16 17 17 17 17 17 17 17 16 15 14 14 14 14 14 15 16 23 25 20 12 11 10 10 14 20 22 25 25 18 15 15 14
10 11 12 12 12 13 14 15 16 16 16 17 17 18 17 16 15 15 15 14 13 13 13 13 12 12 15 19 24 24 14 10 9 9 11 13 23 25 26 21 16 15 13
11 12 12 13 13 13 14 16 16 16 17 17 17 17 17 14 13 14 14 13 12 11 11 12 11 10 13 17 20 24 24 19 10 9 10 13 21 24 24 20 22 21 15
10 11 12 14 13 13 13 15 16 16 17 17 17 16 16 15 14 13 13 12 11 10 9 8 9 8 9 12 16 18 20 19 15 11 15 18 20 19 17 22 22 17 12
9 11 12 13 14 14 14 14 15 16 16 17 16 15 15 16 14 11 10 10 11 10 9 7 7 7 8 9 9 10 11 12 11 10 12 14 14 14 15 15 13 11 11
10 10 11 13 14 15 15 14 15 15 16 16 15 14 14 14 14 13 12 10 10 10 10 9 7 7 8 11 12 11 10 8 8 8 8 9 9 10 10 10 10 10 10
10 11 12 13 14 14 15 15 15 15 16 15 14 13 13 13 12 12 12 14 14 13 12 12 9 7 11 14 12 12 12 11 10 7 8 8 9 9 9 9 9 9 9
Wind_Direction
10 11 7 3 358 357 356 353 350 348 348 352 348 345 341 344 343 343 340 340 338 338 336 336 333 333 329 326 321 318 309 299 295 291 277 262 252 246 247 246 245 240 233
4 3 358 360 359 356 353 351 351 347 347 354 347 339 334 339 341 340 335 334 333 335 337 332 331 333 328 323 322 324 318 307 303 306 299 272 259 241 238 242 239 236 233
359 354 355 359 357 354 350 349 350 346 349 352 347 342 342 341 341 340 334 332 330 327 330 328 327 326 316 312 318 317 314 314 305 291 286 281 266 277 246 232 239 234 232
354 353 356 357 355 350 347 347 348 345 348 349 350 346 343 339 338 336 332 329 327 324 327 323 326 322 315 315 312 309 305 297 298 299 285 276 292 294 280 237 223 235 240
352 352 354 352 348 349 346 345 344 345 349 349 350 344 340 338 334 335 332 331 328 325 329 321 328 322 315 311 310 305 301 293 287 288 289 286 282 277 268 267 259 246 240
349 349 348 346 347 349 345 346 345 347 350 349 349 345 340 339 336 336 335 333 328 328 325 327 327 321 317 317 310 306 302 295 284 278 278 281 277 279 279 268 264 267 258
347 347 347 348 349 348 345 347 346 346 348 348 346 344 341 338 336 335 333 330 329 326 323 326 324 318 318 315 309 301 295 294 288 279 277 277 275 273 275 276 272 273 271
350 349 349 347 347 347 347 347 346 344 345 345 343 341 340 337 333 331 328 326 324 322 321 322 320 317 317 315 310 300 295 296 294 281 269 272 276 275 269 272 270 261 261
350 350 348 348 349 350 348 347 345 342 342 341 340 339 340 338 333 329 326 324 324 322 322 321 321 316 316 318 317 306 303 303 298 289 273 264 265 266 264 261 262 265 251
355 351 352 351 350 350 348 347 346 342 340 340 339 337 338 337 333 330 329 327 325 324 323 324 322 316 317 322 318 304 302 308 304 294 290 277 264 260 256 249 245 240 249
355 351 351 351 349 349 348 347 345 342 341 340 338 337 337 336 335 333 330 328 326 324 324 325 323 321 324 327 321 306 315 315 312 312 305 292 269 273 271 262 251 238 238
349 351 350 350 349 348 348 346 343 341 340 339 338 337 337 338 338 337 334 332 329 326 326 327 323 322 325 326 321 310 318 322 322 323 320 322 303 256 253 286 277 248 229
348 349 351 350 348 346 344 343 340 339 337 337 337 337 338 339 339 338 336 335 332 329 329 330 325 324 327 321 318 309 323 327 327 328 326 327 338 315 285 291 286 257 240
348 349 348 347 346 343 340 340 338 338 336 334 335 336 337 336 335 335 336 335 333 333 331 330 329 327 327 323 314 318 342 339 335 330 330 330 342 326 290 285 293 267 232
347 347 345 344 342 340 338 338 336 335 333 332 333 334 334 332 332 333 335 335 333 333 331 330 330 329 330 326 326 344 342 337 337 335 336 336 353 359 354 337 301 284 258
343 345 343 340 339 337 335 333 330 330 328 329 329 330 331 330 330 330 333 334 332 332 332 329 329 330 330 330 336 351 346 342 343 341 348 350 357 5 17 30 34 29 359
339 341 340 337 333 331 329 327 327 326 325 326 324 325 326 327 327 327 330 333 331 331 329 328 330 330 331 332 337 348 353 355 4 356 8 10 6 15 9 24 32 34 39
335 334 335 331 326 326 324 323 324 322 323 321 321 323 324 323 322 324 325 328 329 330 326 329 333 332 335 335 338 340 4 6 15 10 28 29 22 27 27 25 30 28 29
331 332 332 327 324 324 325 324 323 325 324 321 321 321 318 317 319 319 318 326 328 325 325 331 333 336 339 342 351 28 31 16 17 20 30 35 31 33 34 31 31 31 21
333 332 330 330 328 328 327 323 325 327 328 326 322 319 319 322 323 320 321 322 323 322 325 329 334 342 346 349 5 27 14 15 9 20 37 39 37 34 37 37 35 33 23
333 332 332 331 332 331 327 324 326 329 329 323 320 321 325 327 324 320 318 320 320 321 325 328 334 347 351 353 4 18 14 7 10 23 38 33 40 42 39 37 35 35 30
337 338 333 330 331 333 329 325 326 329 325 323 324 327 328 326 321 323 322 320 319 322 323 327 334 348 349 356 4 15 19 20 19 39 43 37 36 39 42 39 35 32 31
335 336 331 327 331 338 333 325 326 327 325 326 329 331 328 325 328 331 326 325 323 321 317 322 328 343 345 356 5 14 21 25 30 42 42 40 39 37 39 40 36 34 31
336 334 332 330 333 337 333 329 328 329 328 330 331 331 330 326 327 330 328 326 323 322 327 335 332 334 341 355 5 19 25 27 36 28 35 37 35 39 38 37 36 34 33
336 335 334 330 332 334 332 335 337 334 333 333 333 335 329 329 335 338 337 334 335 346 349 341 333 331 339 351 19 21 28 25 37 36 36 36 33 31 33 36 35 35 32
335 334 335 333 332 332 333 338 340 339 338 338 340 335 335 339 338 336 339 347 352 357 6 350 345 331 334 343 26 28 39 32 36 41 40 36 33 30 27 27 30 32 32